1516762800.82,1569,4.19,73606.5,-9.53,-33.27,-34.83,0,*6D
1516762802.07,1570,4.19,73602.8,-9.53,-33.09,-34.59,0,*6E
1516762803.34,1571,4.19,73602.0,-9.53,-33.27,-34.83,0,*64
1516762804.59,1572,4.19,73602.8,-9.53,-33.43,-35.01,0,*6E
1516762805.82,1573,4.25,73606.5,-9.53,-33.67,-35.29,0,*63
1516762807.02,1574,4.19,73604.3,-9.55,-33.21,-34.89,0,*6B
1516762808.27,1575,4.25,73610.3,-9.57,-33.03,-34.65,0,*6A
1516762809.49,1576,4.25,73610.0,-9.55,-32.97,-34.59,0,*68
1516762810.71,1577,4.19,73608.8,-9.55,-32.85,-34.47,0,*65
1516762811.93,1578,4.19,73610.8,-9.57,-32.69,-34.25,0,*6E
1516762813.18,1579,4.25,73612.8,-9.55,-32.45,-33.89,0,*62
1516762814.42,1580,4.25,73610.3,-9.57,-32.23,-33.61,0,*60
1516762815.67,1581,4.19,73610.3,-9.55,-31.91,-33.49,0,*63
1516762816.92,1582,4.19,73608.0,-9.55,-31.91,-33.31,0,*6F
1516762818.15,1583,4.19,73608.0,-9.55,-31.95,-33.37,0,*6C
1516762819.37,1584,4.19,73606.5,-9.55,-32.13,-33.49,0,*6F
1516762820.59,1585,4.19,73606.5,-9.51,-32.01,-33.49,0,*69
1516762821.87,1586,4.19,73608.0,-9.53,-31.91,-33.27,0,*6A
1516762823.12,1587,4.19,73602.8,-9.51,-31.91,-33.31,0,*6E
1516762824.37,1588,4.19,73606.8,-9.51,-31.91,-33.43,0,*64
1516762825.56,1589,4.19,73600.5,-9.51,-32.23,-33.55,0,*68
1516762826.8,1590,4.19,73604.3,-9.51,-32.07,-33.49,0,*6B
1516762828.05,1591,4.19,73606.3,-9.53,-32.39,-33.89,0,*69
1516762829.27,1592,4.25,73608.0,-9.51,-32.39,-33.89,0,*68
1516762830.47,1593,4.19,73604.3,-9.51,-32.01,-33.55,0,*63
1516762831.7,1594,4.19,73604.3,-9.51,-32.01,-33.43,0,*63
1516762832.97,1595,4.19,73606.8,-9.49,-32.19,-33.49,0,*68
1516762834.22,1596,4.19,73606.8,-9.51,-31.91,-33.43,0,*6B
1516762835.46,1597,4.19,73604.5,-9.49,-32.13,-33.49,0,*60
1516762836.69,1598,4.19,73604.5,-9.49,-32.01,-33.37,0,*65
1516762837.95,1599,4.19,73604.5,-9.49,-32.01,-33.43,0,*67
1516762839.2,1600,4.19,73606.0,-9.45,-32.29,-33.83,0,*6E
1516762840.44,1601,4.19,73606.8,-9.49,-32.29,-33.83,0,*63
1516762841.7,1602,4.19,73606.3,-9.45,-32.39,-34.01,0,*60
1516762842.95,1603,4.19,73606.8,-9.49,-32.51,-34.01,0,*63
1516762844.21,1604,4.19,73606.5,-9.45,-32.51,-34.01,0,*68
1516762845.48,1605,4.19,73600.8,-9.49,-32.75,-34.35,0,*64
1516762846.75,1606,4.19,73606.0,-9.49,-32.75,-34.31,0,*63
1516762848.01,1607,4.19,73606.0,-9.45,-32.69,-34.19,0,*69
1516762849.25,1608,4.19,73606.5,-9.49,-32.69,-34.35,0,*64
1516762850.52,1609,4.25,73610.8,-9.49,-32.75,-34.35,0,*68
1516762851.77,1610,4.19,73610.3,-9.49,-32.69,-34.31,0,*69
1516762852.96,1611,4.19,73612.3,-9.51,-32.57,-34.07,0,*69
1516762854.21,1612,4.19,73610.3,-9.51,-31.91,-33.43,0,*64
1516762855.47,1613,4.19,73610.8,-9.49,-32.01,-33.43,0,*66
1516762856.72,1614,4.19,73608.8,-9.49,-31.95,-33.37,0,*6C
1516762858.0,1615,4.19,73608.0,-9.49,-32.19,-33.43,0,*69
1516762859.22,1616,4.19,73610.5,-9.49,-32.51,-33.95,0,*6D
1516762860.48,1617,4.19,73608.3,-9.45,-32.69,-34.35,0,*66
1516762861.7,1618,4.19,73604.5,-9.49,-32.69,-34.13,0,*61
1516762862.94,1619,4.19,73606.5,-9.45,-32.57,-34.13,0,*61
1516762864.16,1620,4.19,73608.3,-9.49,-32.69,-34.13,0,*6A
1516762865.42,1621,4.19,73608.5,-9.45,-32.69,-34.35,0,*63
1516762866.65,1622,4.19,73606.5,-9.45,-32.91,-34.47,0,*62
1516762867.91,1623,4.19,73606.0,-9.49,-33.21,-34.65,0,*65
1516762869.13,1624,4.19,73608.8,-9.49,-33.21,-34.71,0,*67
1516762870.38,1625,4.19,73606.0,-9.49,-33.21,-34.65,0,*63
1516762871.6,1626,4.19,73608.8,-9.49,-33.21,-34.71,0,*65
1516762872.82,1627,4.19,73608.0,-9.51,-33.27,-34.77,0,*6D
1516762874.04,1628,4.19,73610.3,-9.51,-33.27,-34.71,0,*64
1516762875.29,1629,4.19,73608.0,-9.53,-33.31,-34.77,0,*66
1516762876.54,1630,4.19,73610.5,-9.53,-33.31,-34.77,0,*6E
1516762877.79,1631,4.19,73606.8,-9.53,-33.27,-34.59,0,*64
1516762879.01,1632,4.19,73610.8,-9.51,-33.43,-34.77,0,*6B
1516762880.26,1633,4.19,73610.5,-9.53,-33.09,-34.59,0,*6A
1516762881.48,1634,4.19,73608.5,-9.53,-33.15,-34.59,0,*60
1516762882.73,1635,4.25,73614.5,-9.53,-33.27,-34.71,0,*6A
1516762884.0,1636,4.19,73610.0,-9.53,-32.97,-34.53,0,*63
1516762885.27,1637,4.19,73612.0,-9.53,-32.79,-34.35,0,*62
1516762886.55,1638,4.19,73610.3,-9.53,-33.09,-34.53,0,*6B
1516762887.82,1639,4.19,73608.8,-9.53,-32.97,-34.53,0,*6C
1516762889.04,1640,4.19,73610.3,-9.55,-32.97,-34.41,0,*67
1516762890.28,1641,4.19,73608.0,-9.53,-32.97,-34.41,0,*60
1516762891.52,1642,4.19,73610.5,-9.53,-32.75,-34.25,0,*6D
1516762892.76,1643,4.19,73610.5,-9.53,-33.09,-34.41,0,*64
1516762893.98,1644,4.19,73610.3,-9.55,-32.85,-34.41,0,*60
1516762895.17,1645,4.19,73606.5,-9.55,-33.03,-34.41,0,*6E
1516762896.42,1646,4.19,73610.5,-9.55,-32.79,-33.89,0,*62
1516762897.64,1647,4.19,73606.8,-9.55,-32.39,-33.61,0,*61
1516762898.89,1648,4.19,73610.0,-9.53,-32.23,-33.43,0,*63
1516762900.14,1649,4.19,73608.8,-9.53,-32.39,-33.73,0,*6A
1516762901.38,1650,4.19,73610.0,-9.53,-32.35,-33.49,0,*67
1516762902.63,1651,4.19,73610.5,-9.53,-32.23,-33.49,0,*61
1516762903.81,1652,4.19,73612.3,-9.51,-32.35,-33.55,0,*6A
1516762905.0,1653,4.19,73608.0,-9.51,-32.35,-33.55,0,*6B
1516762906.22,1654,4.19,73608.3,-9.51,-32.63,-34.07,0,*6F
1516762907.44,1655,4.19,73608.8,-9.51,-32.75,-34.07,0,*69
1516762908.69,1656,4.19,73606.5,-9.51,-32.07,-33.31,0,*6D
1516762909.91,1657,4.19,73606.8,-9.51,-32.23,-33.31,0,*6A
1516762911.16,1658,4.19,73606.3,-9.49,-31.95,-33.21,0,*63
1516762912.38,1659,4.19,73606.8,-9.49,-32.13,-33.21,0,*6F
1516762913.62,1660,4.19,73608.5,-9.49,-32.39,-33.49,0,*63
1516762914.88,1661,4.19,73610.0,-9.49,-31.95,-32.91,0,*63
1516762916.16,1662,4.19,73608.3,-9.45,-32.19,-33.27,0,*67
1516762917.4,1663,4.19,73612.5,-9.45,-32.35,-33.67,0,*6C
1516762918.63,1664,4.19,73612.3,-9.45,-32.35,-33.37,0,*6E
1516762919.91,1665,4.19,73610.5,-9.45,-32.29,-33.43,0,*61
1516762921.15,1666,4.19,73610.0,-9.49,-32.35,-33.49,0,*69
1516762922.37,1667,4.19,73614.0,-9.49,-32.39,-33.67,0,*68
1516762923.61,1668,4.19,73616.0,-9.43,-32.63,-33.95,0,*6F
1516762924.86,1669,4.19,73614.8,-9.45,-32.51,-33.77,0,*65
1516762926.12,1670,4.19,73616.3,-9.45,-32.51,-33.77,0,*6D
1516762927.38,1671,4.19,73614.0,-9.43,-32.63,-33.89,0,*6A
1516762928.64,1672,4.19,73612.0,-9.43,-32.45,-33.73,0,*68
1516762929.87,1673,4.19,73616.3,-9.43,-32.63,-33.95,0,*65
1516762931.11,1674,4.19,73614.3,-9.41,-32.69,-34.07,0,*66
1516762932.35,1675,4.19,73612.5,-9.43,-32.79,-33.95,0,*68
1516762933.58,1676,4.19,73614.5,-9.43,-33.03,-34.31,0,*6E
1516762934.81,1677,4.19,73614.5,-9.43,-32.85,-34.07,0,*65
1516762936.06,1678,4.19,73616.5,-9.43,-32.69,-33.89,0,*69
1516762937.29,1679,4.19,73614.8,-9.43,-32.79,-34.13,0,*6D
1516762938.53,1680,4.19,73618.0,-9.43,-33.31,-34.59,0,*68
1516762939.75,1681,4.19,73616.3,-9.43,-32.97,-34.25,0,*6F
1516762940.97,1682,4.19,73614.5,-9.43,-33.21,-34.47,0,*64
1516762942.23,1683,4.19,73616.8,-9.43,-33.43,-34.65,0,*61
1516762943.47,1684,4.19,73612.3,-9.45,-33.67,-34.71,0,*63
1516762944.73,1685,4.19,73614.3,-9.45,-33.49,-34.77,0,*68
1516762946.01,1686,4.19,73614.3,-9.49,-33.49,-34.65,0,*64
1516762947.3,1687,4.19,73614.3,-9.45,-33.49,-34.65,0,*69
1516762948.59,1688,4.19,73614.3,-9.45,-33.61,-34.65,0,*6C
1516762949.81,1689,4.19,73608.8,-9.49,-33.67,-34.71,0,*62
1516762951.03,1690,4.19,73612.8,-9.49,-33.67,-34.89,0,*6D
1516762952.28,1691,4.19,73610.5,-9.49,-33.83,-35.07,0,*61
1516762953.5,1692,4.19,73608.8,-9.49,-33.67,-34.77,0,*6E
1516762954.75,1693,4.19,73608.5,-9.49,-33.77,-34.89,0,*6F
1516762955.97,1694,4.19,73610.5,-9.49,-33.83,-34.89,0,*63
1516762957.19,1695,4.19,73604.8,-9.51,-33.83,-34.95,0,*66
1516762958.47,1696,4.19,73610.5,-9.53,-33.89,-34.95,0,*6D
1516762959.72,1697,4.19,73608.5,-9.53,-34.01,-35.13,0,*64
1516762960.98,1698,4.19,73602.0,-9.53,-34.01,-35.01,0,*68
1516762962.24,1699,4.19,73600.5,-9.53,-34.01,-35.01,0,*69
1516762963.44,1700,4.19,73596.8,-9.51,-34.07,-35.17,0,*6B
1516762964.66,1701,4.19,73596.3,-9.55,-33.89,-35.01,0,*68
1516762965.89,1702,4.19,73594.5,-9.53,-33.83,-35.01,0,*67
1516762967.1,1703,4.19,73596.8,-9.55,-34.13,-35.13,0,*6D
1516762968.32,1704,4.19,73598.5,-9.55,-33.77,-34.89,0,*6D
1516762969.53,1705,4.19,73596.3,-9.55,-33.61,-34.59,0,*66
1516762970.78,1706,4.19,73598.0,-9.55,-33.61,-34.65,0,*6A
1516762972.03,1707,4.19,73592.5,-9.57,-33.77,-34.77,0,*6D
1516762973.26,1708,4.19,73596.5,-9.55,-33.77,-34.77,0,*60
1516762974.53,1709,4.19,73596.3,-9.57,-33.77,-34.65,0,*60
1516762975.78,1710,4.19,73598.8,-9.57,-33.77,-34.89,0,*6A
1516762976.98,1711,4.19,73600.0,-9.55,-33.95,-35.01,0,*64
1516762978.2,1712,4.19,73600.8,-9.57,-34.07,-35.17,0,*6E
1516762979.48,1713,4.19,73600.8,-9.57,-34.31,-35.35,0,*6A
1516762980.71,1714,4.19,73606.5,-9.59,-34.19,-35.29,0,*64
1516762981.96,1715,4.19,73602.3,-9.61,-34.13,-35.23,0,*6E
1516762983.21,1716,4.19,73606.8,-9.61,-34.13,-35.07,0,*6B
1516762984.46,1717,4.19,73606.5,-9.61,-33.95,-34.95,0,*69
1516762985.74,1718,4.19,73606.5,-9.61,-34.01,-35.07,0,*66
1516762986.97,1719,4.19,73604.8,-9.61,-33.83,-34.89,0,*6D
1516762988.16,1720,4.19,73606.8,-9.63,-33.83,-34.89,0,*65
1516762989.36,1721,4.19,73606.3,-9.63,-33.67,-34.71,0,*69
1516762990.58,1722,4.19,73604.5,-9.65,-33.83,-34.71,0,*66
1516762991.83,1723,4.19,73608.8,-9.63,-33.49,-34.53,0,*67
1516762993.04,1724,4.19,73608.5,-9.63,-33.31,-34.41,0,*6C
1516762994.31,1725,4.19,73608.3,-9.61,-33.27,-34.35,0,*6B
1516762995.56,1726,4.19,73608.5,-9.61,-33.43,-34.47,0,*6F
1516762996.84,1727,4.25,73614.0,-9.61,-33.77,-34.83,0,*61
1516762998.11,1728,4.19,73608.3,-9.61,-33.77,-34.83,0,*6E
1516762999.33,1729,4.19,73610.5,-9.61,-33.83,-34.89,0,*6E
1516763000.56,1730,4.19,73610.5,-9.61,-33.83,-34.89,0,*66
1516763001.81,1731,4.19,73610.0,-9.61,-34.01,-34.89,0,*6A
1516763003.01,1732,4.19,73608.5,-9.63,-34.07,-35.01,0,*6C
1516763004.22,1733,4.19,73608.5,-9.63,-34.07,-35.01,0,*6D
1516763005.45,1734,4.19,73606.3,-9.65,-34.07,-35.01,0,*6C
1516763006.65,1735,4.19,73608.0,-9.63,-34.07,-35.01,0,*6B
1516763007.88,1736,4.19,73606.8,-9.65,-34.07,-35.01,0,*6E
1516763009.14,1737,4.19,73606.3,-9.65,-34.07,-34.95,0,*63
1516763010.38,1738,4.19,73608.0,-9.65,-33.89,-34.89,0,*60
1516763011.63,1739,4.19,73610.5,-9.65,-34.01,-34.77,0,*67
1516763012.87,1740,4.19,73610.5,-9.65,-33.89,-34.89,0,*6F
1516763014.13,1741,4.19,73610.5,-9.65,-33.73,-34.71,0,*6C
1516763015.37,1742,4.19,73608.5,-9.65,-33.61,-34.59,0,*66
1516763016.64,1743,4.19,73610.3,-9.65,-33.61,-34.53,0,*6D
1516763017.91,1744,4.19,73610.3,-9.65,-33.31,-34.35,0,*6F
1516763019.18,1745,4.19,73610.3,-9.65,-33.09,-34.01,0,*62
1516763020.4,1746,4.19,73608.8,-9.65,-33.15,-34.07,0,*6A
1516763021.64,1747,4.19,73606.0,-9.65,-33.31,-34.25,0,*6D
1516763022.91,1748,4.19,73606.0,-9.65,-33.61,-34.53,0,*66
1516763024.1,1749,4.19,73606.0,-9.63,-33.83,-34.77,0,*6B
1516763025.36,1750,4.19,73604.0,-9.63,-34.01,-34.95,0,*62
1516763026.6,1751,4.19,73602.8,-9.65,-34.01,-34.89,0,*68
1516763027.82,1752,4.19,73600.3,-9.63,-33.89,-34.77,0,*6B
1516763029.08,1753,4.19,73600.0,-9.65,-33.73,-34.71,0,*6F
1516763030.32,1754,4.19,73602.5,-9.63,-33.61,-34.53,0,*6D
1516763031.59,1755,4.19,73604.0,-9.65,-33.49,-34.35,0,*60
1516763032.84,1756,4.19,73602.8,-9.65,-33.73,-34.59,0,*60
1516763034.04,1757,4.19,73598.3,-9.63,-33.67,-34.59,0,*62
1516763035.25,1758,4.19,73604.0,-9.63,-33.27,-34.25,0,*62
1516763036.49,1759,4.19,73606.5,-9.63,-33.43,-34.19,0,*6E
1516763037.74,1760,4.19,73602.8,-9.61,-33.09,-33.95,0,*6B
1516763038.95,1761,4.19,73602.8,-9.63,-33.27,-34.07,0,*68
1516763040.19,1762,4.19,73602.8,-9.65,-33.31,-34.25,0,*6A
1516763041.4,1763,4.19,73602.0,-9.63,-33.43,-34.25,0,*68
1516763042.65,1764,4.19,73600.5,-9.63,-33.61,-34.53,0,*6E
1516763043.87,1765,4.19,73600.0,-9.63,-33.73,-34.59,0,*66
1516763045.1,1766,4.19,73600.8,-9.63,-33.73,-34.59,0,*65
1516763046.32,1767,4.19,73600.8,-9.63,-33.73,-34.59,0,*64
1516763047.52,1768,4.19,73602.3,-9.63,-33.83,-34.59,0,*64
1516763048.74,1769,4.19,73602.3,-9.65,-33.67,-34.59,0,*69
1516763049.98,1770,4.19,73602.8,-9.65,-33.61,-34.41,0,*6E
1516763051.2,1771,4.19,73596.3,-9.65,-33.67,-34.41,0,*69
1516763052.45,1772,4.19,73600.8,-9.65,-34.01,-34.71,0,*6E
1516763053.67,1773,4.19,73600.0,-9.63,-33.73,-34.59,0,*61
1516763054.92,1774,4.19,73596.8,-9.65,-33.73,-34.41,0,*69
1516763056.11,1775,4.19,73600.8,-9.63,-33.67,-34.59,0,*62
1516763057.36,1776,4.19,73602.8,-9.65,-33.89,-34.71,0,*6D
1516763058.56,1777,4.19,73600.3,-9.63,-34.07,-34.77,0,*6D
1516763059.81,1778,4.19,73596.5,-9.65,-34.01,-34.77,0,*62
1516763061.07,1779,4.19,73598.8,-9.65,-34.07,-34.95,0,*69
1516763062.31,1780,4.19,73604.0,-9.65,-33.89,-34.59,0,*6E
1516763063.56,1781,4.19,73602.8,-9.67,-33.77,-34.65,0,*63
1516763064.8,1782,4.19,73602.5,-9.65,-33.89,-34.77,0,*60
1516763066.03,1783,4.19,73606.5,-9.67,-34.47,-35.23,0,*66
1516763067.23,1784,4.19,73600.5,-9.67,-34.25,-35.01,0,*65
1516763068.47,1785,4.19,73596.5,-9.71,-34.31,-35.07,0,*60
1516763069.69,1786,4.19,73600.5,-9.67,-34.41,-35.07,0,*63
1516763070.91,1787,4.19,73600.0,-9.71,-34.25,-34.95,0,*6D
1516763072.12,1788,4.19,73600.3,-9.71,-34.07,-34.77,0,*6E
1516763073.34,1789,4.19,73600.5,-9.71,-33.77,-34.47,0,*6C
1516763074.57,1790,4.19,73604.3,-9.71,-33.73,-34.47,0,*60
1516763075.8,1791,4.19,73602.8,-9.71,-33.73,-34.47,0,*61
1516763077.01,1792,4.19,73602.8,-9.71,-33.55,-34.31,0,*67
1516763078.23,1793,4.19,73604.3,-9.67,-33.49,-34.13,0,*6C
1516763079.42,1794,4.19,73604.8,-9.67,-33.67,-34.41,0,*60
1516763080.64,1795,4.19,73608.5,-9.71,-33.77,-34.59,0,*6E
1516763081.86,1796,4.19,73600.0,-9.71,-33.31,-34.13,0,*61
1516763083.06,1797,4.19,73604.3,-9.71,-33.37,-34.13,0,*66
1516763084.25,1798,4.19,73606.5,-9.67,-33.67,-34.41,0,*6C
1516763085.43,1799,4.19,73604.3,-9.67,-33.55,-34.25,0,*6E
1516763086.66,1800,4.19,73604.0,-9.67,-33.49,-34.13,0,*69
1516763087.9,1801,4.19,73606.0,-9.71,-32.85,-33.49,0,*66
1516763089.12,1802,4.19,73608.8,-9.67,-32.63,-33.15,0,*63
1516763090.36,1803,4.19,73606.3,-9.65,-32.39,-32.97,0,*64
1516763091.61,1804,4.19,73606.3,-9.65,-32.35,-33.09,0,*69
1516763092.83,1805,4.19,73608.5,-9.63,-32.57,-33.09,0,*6A
1516763094.05,1806,4.19,73604.5,-9.63,-32.57,-33.31,0,*62
1516763095.25,1807,4.19,73610.3,-9.63,-32.57,-33.15,0,*65
1516763096.44,1808,4.19,73604.5,-9.63,-32.57,-33.15,0,*6A
1516763097.69,1809,4.19,73604.0,-9.63,-32.63,-33.31,0,*6A
1516763098.95,1810,4.19,73608.8,-9.59,-32.85,-33.43,0,*66
1516763100.17,1811,4.19,73608.8,-9.59,-32.91,-33.43,0,*62
1516763101.45,1812,4.19,73610.8,-9.61,-32.85,-33.43,0,*6F
1516763102.68,1813,4.19,73606.5,-9.59,-33.09,-33.67,0,*66
1516763103.87,1814,4.19,73610.8,-9.59,-33.21,-33.95,0,*66
1516763105.09,1815,4.19,73606.8,-9.59,-33.09,-33.83,0,*6A
1516763106.29,1816,4.19,73610.3,-9.59,-33.21,-33.83,0,*63
1516763107.51,1817,4.19,73604.5,-9.57,-33.21,-33.95,0,*6B
1516763108.76,1818,4.19,73612.0,-9.59,-33.27,-34.01,0,*66
1516763109.98,1819,4.19,73610.5,-9.59,-33.27,-33.95,0,*6D
1516763111.19,1820,4.19,73610.8,-9.59,-32.91,-33.61,0,*60
1516763112.43,1821,4.19,73610.8,-9.55,-32.97,-33.49,0,*61
1516763113.66,1822,4.19,73610.3,-9.55,-33.03,-33.77,0,*63
1516763114.88,1823,4.19,73610.8,-9.55,-32.97,-33.55,0,*6E
1516763116.14,1824,4.19,73608.0,-9.57,-32.97,-33.49,0,*66
1516763117.37,1825,4.19,73608.8,-9.55,-33.21,-33.89,0,*65
1516763118.64,1826,4.19,73606.5,-9.57,-33.31,-33.77,0,*64
1516763119.85,1827,4.19,73612.3,-9.55,-33.15,-33.61,0,*66
1516763121.08,1828,4.19,73610.3,-9.55,-33.03,-33.77,0,*69
1516763122.3,1829,4.19,73612.0,-9.55,-33.31,-33.95,0,*65
1516763123.5,1830,4.19,73608.8,-9.55,-33.37,-34.13,0,*62
1516763124.7,1831,4.19,73610.3,-9.55,-33.37,-34.07,0,*66
1516763125.93,1832,4.19,73614.3,-9.55,-33.61,-34.31,0,*63
1516763127.12,1833,4.19,73608.5,-9.55,-33.55,-34.25,0,*60
1516763128.37,1834,4.19,73614.3,-9.53,-33.73,-34.41,0,*67
1516763129.58,1835,4.19,73612.3,-9.57,-33.55,-34.25,0,*64
1516763130.8,1836,4.19,73614.8,-9.55,-33.49,-34.25,0,*68
1516763132.03,1837,4.19,73610.5,-9.57,-33.37,-34.07,0,*62
1516763133.25,1838,4.19,73610.8,-9.55,-33.49,-34.13,0,*63
1516763134.46,1839,4.19,73608.8,-9.55,-33.55,-34.31,0,*6F
1516763135.71,1840,4.19,73610.5,-9.57,-33.49,-34.13,0,*6E
1516763136.94,1841,4.19,73610.3,-9.55,-33.73,-34.41,0,*63
1516763138.17,1842,4.19,73608.0,-9.55,-33.73,-34.47,0,*66
1516763139.42,1843,4.19,73608.8,-9.55,-33.73,-34.31,0,*66
1516763140.63,1844,4.19,73608.0,-9.55,-33.49,-34.25,0,*6D
1516763141.86,1845,4.19,73604.8,-9.55,-33.73,-34.25,0,*65
1516763143.07,1846,4.19,73604.5,-9.55,-33.61,-34.41,0,*67
1516763144.32,1847,4.19,73606.5,-9.57,-33.77,-34.47,0,*65
1516763145.51,1848,4.19,73604.3,-9.55,-33.95,-34.59,0,*6B
1516763146.77,1849,4.19,73606.3,-9.57,-33.73,-34.47,0,*6F
1516763147.99,1850,4.19,73606.5,-9.55,-33.77,-34.47,0,*61
1516763149.22,1851,4.19,73610.0,-9.55,-33.77,-34.47,0,*60
1516763150.45,1852,4.19,73606.5,-9.57,-34.13,-35.01,0,*67
1516763151.65,1853,4.19,73610.3,-9.55,-34.07,-34.89,0,*60
1516763152.87,1854,4.19,73608.8,-9.55,-34.13,-34.83,0,*68
1516763154.12,1855,4.19,73608.8,-9.57,-33.77,-34.47,0,*66
1516763155.37,1856,4.19,73610.5,-9.57,-33.77,-34.47,0,*65
1516763156.59,1857,4.19,73612.0,-9.59,-33.95,-34.53,0,*63
1516763157.82,1858,4.19,73610.5,-9.59,-34.01,-34.71,0,*66
1516763159.08,1859,4.19,73608.5,-9.59,-34.01,-34.65,0,*62
1516763160.33,1860,4.19,73608.0,-9.59,-34.01,-34.65,0,*68
1516763161.58,1861,4.19,73608.5,-9.61,-34.13,-34.83,0,*69
1516763162.81,1862,4.19,73614.3,-9.59,-34.13,-34.65,0,*69
1516763164.04,1863,4.19,73608.8,-9.59,-33.95,-34.65,0,*61
1516763165.29,1864,4.19,73610.5,-9.59,-34.01,-34.65,0,*6C
1516763166.52,1865,4.19,73610.0,-9.59,-34.01,-34.71,0,*68
1516763167.8,1866,4.19,73608.3,-9.61,-34.01,-34.65,0,*65
1516763169.09,1867,4.19,73608.5,-9.61,-34.01,-34.65,0,*64
1516763170.34,1868,4.19,73608.5,-9.61,-33.95,-34.65,0,*61
1516763171.62,1869,4.19,73612.5,-9.61,-34.01,-34.53,0,*6F
1516763172.89,1870,4.19,73610.8,-9.61,-34.19,-34.83,0,*63
1516763174.15,1871,4.19,73610.8,-9.61,-34.47,-35.23,0,*62
1516763175.43,1872,4.19,73610.5,-9.61,-34.31,-34.95,0,*6C
1516763176.7,1873,4.19,73612.3,-9.61,-34.19,-34.83,0,*60
1516763177.95,1874,4.19,73610.0,-9.61,-34.19,-34.89,0,*6D
1516763179.17,1875,4.19,73610.0,-9.63,-34.53,-35.17,0,*66
1516763180.45,1876,4.19,73610.3,-9.61,-34.53,-35.23,0,*60
1516763181.67,1877,4.19,73610.5,-9.63,-34.19,-34.77,0,*6D
1516763182.91,1878,4.19,73614.8,-9.63,-34.53,-35.01,0,*6C
1516763184.11,1879,4.19,73610.0,-9.63,-34.59,-35.29,0,*6D
1516763185.36,1880,4.19,73614.0,-9.65,-34.53,-35.17,0,*6A
1516763186.57,1881,4.19,73608.3,-9.67,-34.47,-35.17,0,*6C
1516763187.79,1882,4.19,73614.0,-9.67,-34.59,-35.23,0,*67
1516763189.02,1883,4.19,73614.5,-9.65,-34.71,-35.17,0,*69
1516763190.27,1884,4.19,73608.5,-9.65,-34.71,-35.35,0,*6E
1516763191.52,1885,4.19,73610.3,-9.71,-34.83,-35.41,0,*64
1516763192.77,1886,4.19,73610.3,-9.67,-34.83,-35.53,0,*63
1516763194.02,1887,4.19,73612.5,-9.67,-34.83,-35.53,0,*62
1516763195.25,1888,4.19,73610.3,-9.71,-34.95,-35.59,0,*67
1516763196.47,1889,4.19,73610.8,-9.73,-34.89,-35.59,0,*69
1516763197.75,1890,4.19,73610.0,-9.73,-34.83,-35.41,0,*62
1516763199.0,1891,4.19,73608.8,-9.73,-35.07,-35.59,0,*67
1516763200.25,1892,4.19,73610.5,-9.75,-35.07,-35.65,0,*6D
1516763201.51,1893,4.19,73610.5,-9.75,-34.65,-35.41,0,*6F
1516763202.76,1894,4.19,73610.0,-9.75,-34.83,-35.41,0,*60
1516763203.95,1895,4.19,73608.8,-9.75,-34.89,-35.59,0,*62
1516763205.16,1896,4.19,73608.0,-9.75,-35.01,-35.59,0,*60
1516763206.36,1897,4.19,73610.3,-9.75,-34.89,-35.59,0,*60
1516763207.58,1898,4.19,73608.3,-9.75,-35.07,-35.59,0,*68
1516763208.83,1899,4.19,73608.3,-9.77,-35.13,-35.65,0,*61
1516763210.06,1900,4.19,73614.0,-9.77,-35.13,-35.71,0,*65
1516763211.29,1901,4.19,73612.5,-9.79,-35.07,-35.71,0,*6F
1516763212.49,1902,4.19,73610.5,-9.81,-35.01,-35.59,0,*67
1516763213.72,1903,4.19,73610.0,-9.79,-34.77,-35.53,0,*6B
1516763214.93,1904,4.19,73610.0,-9.79,-34.71,-35.47,0,*6F
1516763216.16,1905,4.19,73608.8,-9.81,-34.59,-35.35,0,*66
1516763217.36,1906,4.19,73610.5,-9.81,-34.59,-35.17,0,*65
1516763218.61,1907,4.19,73610.8,-9.81,-34.83,-35.53,0,*63
1516763219.84,1908,4.19,73610.8,-9.81,-34.83,-35.59,0,*66
1516763221.09,1909,4.19,73608.3,-9.83,-34.95,-35.59,0,*62
1516763222.36,1910,4.19,73610.0,-9.83,-34.95,-35.41,0,*63
1516763223.64,1911,4.19,73610.3,-9.83,-34.65,-35.23,0,*69
1516763224.91,1912,4.19,73608.5,-9.83,-34.95,-35.53,0,*62
1516763226.13,1913,4.19,73612.0,-9.83,-35.13,-35.59,0,*66
1516763227.41,1914,4.19,73612.3,-9.83,-34.83,-35.53,0,*63
1516763228.63,1915,4.19,73612.5,-9.83,-34.59,-35.17,0,*65
1516763229.91,1916,4.19,73612.5,-9.83,-34.65,-35.23,0,*6E
1516763231.14,1917,4.19,73612.0,-9.85,-34.71,-35.23,0,*6C
1516763232.39,1918,4.19,73608.8,-9.85,-34.65,-35.23,0,*66
1516763233.6,1919,4.19,73612.3,-9.85,-34.71,-35.29,0,*68
1516763234.82,1920,4.19,73610.5,-9.85,-34.71,-35.29,0,*62
1516763236.07,1921,4.19,73608.5,-9.85,-34.83,-35.41,0,*60
1516763237.31,1922,4.19,73608.5,-9.85,-34.65,-35.29,0,*65
1516763238.53,1923,4.19,73610.0,-9.87,-34.89,-35.59,0,*63
1516763239.79,1924,4.19,73608.3,-9.87,-35.07,-35.59,0,*63
1516763241.04,1925,4.19,73608.5,-9.87,-34.53,-35.17,0,*68
1516763242.29,1926,4.19,73608.8,-9.87,-34.47,-35.07,0,*6F
1516763243.53,1927,4.19,73608.0,-9.87,-34.71,-35.29,0,*67
1516763244.79,1928,4.19,73608.3,-9.85,-34.83,-35.41,0,*69
1516763246.04,1929,4.19,73610.8,-9.87,-35.01,-35.65,0,*67
1516763247.29,1930,4.19,73610.3,-9.89,-35.23,-35.83,0,*69
1516763248.52,1931,4.19,73610.3,-9.89,-35.07,-35.71,0,*63
1516763249.75,1932,4.19,73608.3,-9.89,-34.71,-35.23,0,*67
1516763250.98,1933,4.19,73608.8,-9.89,-34.89,-35.35,0,*66
1516763252.23,1934,4.19,73608.8,-9.89,-34.95,-35.65,0,*69
1516763253.49,1935,4.19,73614.3,-9.91,-34.95,-35.47,0,*61
1516763254.75,1936,4.19,73610.3,-9.89,-34.53,-35.23,0,*63
1516763256.03,1937,4.19,73614.0,-9.91,-34.95,-35.35,0,*66
1516763257.31,1938,4.19,73612.3,-9.91,-34.95,-35.53,0,*69
1516763258.55,1939,4.19,73610.5,-9.91,-34.59,-35.13,0,*6C
1516763259.8,1940,4.19,73614.8,-9.91,-34.71,-35.35,0,*6C
1516763261.06,1941,4.19,73612.3,-9.91,-34.59,-35.23,0,*60
1516763262.29,1942,4.19,73612.8,-9.91,-34.77,-35.47,0,*6D
1516763263.55,1943,4.19,73612.5,-9.91,-34.71,-35.35,0,*6F
1516763264.81,1944,4.19,73612.5,-9.95,-34.95,-35.59,0,*6C
1516763266.05,1945,4.19,73610.8,-9.97,-34.65,-35.29,0,*67
1516763267.3,1946,4.19,73612.0,-9.91,-34.25,-34.95,0,*60
1516763268.55,1947,4.19,73614.5,-9.95,-34.41,-34.95,0,*67
1516763269.79,1948,4.19,73614.8,-9.95,-34.47,-35.01,0,*62
1516763271.02,1949,4.19,73612.5,-9.95,-34.41,-35.01,0,*65
1516763272.27,1950,4.19,73610.3,-9.95,-34.13,-34.83,0,*61
1516763273.52,1951,4.19,73610.5,-9.97,-34.31,-34.83,0,*62
1516763274.79,1952,4.19,73614.8,-9.95,-34.31,-34.83,0,*63
1516763276.06,1953,4.19,73608.8,-9.95,-34.31,-34.83,0,*62
1516763277.34,1954,4.19,73612.3,-9.95,-34.31,-34.95,0,*62
1516763278.6,1955,4.19,73612.5,-9.95,-34.31,-35.01,0,*6F
1516763279.83,1956,4.19,73612.3,-9.95,-34.41,-35.01,0,*6B
1516763281.05,1957,4.19,73614.0,-9.95,-34.41,-35.01,0,*6A
1516763282.29,1958,4.19,73610.0,-9.95,-34.47,-35.29,0,*69
1516763283.55,1959,4.19,73608.0,-9.95,-34.31,-35.01,0,*63
1516763284.78,1960,4.19,73612.3,-9.91,-34.07,-34.71,0,*6E
1516763286.0,1961,4.19,73616.5,-9.91,-33.67,-34.25,0,*6F
1516763287.23,1962,4.19,73612.5,-9.95,-34.13,-34.77,0,*6B
1516763288.47,1963,4.19,73608.8,-9.95,-34.25,-34.83,0,*64
1516763289.72,1964,4.19,73608.5,-9.91,-34.19,-34.89,0,*62
1516763290.97,1965,4.19,73610.3,-9.91,-34.41,-35.07,0,*69
1516763292.23,1966,4.19,73614.5,-9.91,-34.41,-34.95,0,*60
1516763293.48,1967,4.19,73612.0,-9.91,-34.59,-35.23,0,*64
1516763294.69,1968,4.19,73612.0,-9.89,-34.89,-35.47,0,*6D
1516763295.94,1969,4.19,73610.8,-9.95,-35.01,-35.53,0,*65
1516763297.22,1970,4.19,73612.0,-9.95,-34.95,-35.41,0,*62
1516763298.46,1971,4.19,73610.0,-9.97,-34.77,-35.35,0,*6E
1516763299.71,1972,4.19,73608.0,-9.97,-34.95,-35.53,0,*61
1516763300.97,1973,4.19,73610.5,-9.95,-34.77,-35.35,0,*6E
1516763302.22,1974,4.19,73608.3,-9.95,-34.65,-35.17,0,*6A
1516763303.46,1975,4.19,73608.5,-9.95,-34.59,-35.29,0,*69
1516763304.7,1976,4.19,73606.5,-9.97,-34.65,-35.29,0,*67
1516763305.94,1977,4.19,73610.0,-9.97,-34.65,-35.29,0,*66
1516763307.2,1978,4.19,73608.8,-9.97,-34.83,-35.35,0,*6C
1516763308.45,1979,4.19,73610.8,-9.99,-35.01,-35.65,0,*6D
1516763309.69,1980,4.19,73610.5,-9.97,-34.95,-35.59,0,*66
1516763310.92,1981,4.19,73604.0,-9.97,-34.77,-35.41,0,*62
1516763312.16,1982,4.19,73606.5,-9.97,-34.77,-35.35,0,*62